TimeMST,TemperatureF,Dew PointF,Humidity,Sea Level PressureIn,VisibilityMPH,Wind Direction,Wind SpeedMPH,Gust SpeedMPH,PrecipitationIn,Events,Conditions,WindDirDegrees,DateUTC
12:53 AM,30.0,24.1,79,30.03,10.0,Calm,Calm,-,N/A,,Clear,0,2012-11-18 07:53:00
1:53 AM,30.0,24.1,79,30.02,10.0,Calm,Calm,-,N/A,,Clear,0,2012-11-18 08:53:00
2:53 AM,28.0,23.0,81,30.01,10.0,NW,3.5,-,N/A,,Clear,310,2012-11-18 09:53:00
3:53 AM,27.0,21.9,81,30.00,10.0,North,4.6,-,N/A,,Clear,360,2012-11-18 10:53:00
4:53 AM,28.9,24.1,82,30.01,10.0,NW,3.5,-,N/A,,Clear,310,2012-11-18 11:53:00
5:53 AM,28.0,23.0,81,30.03,10.0,WNW,3.5,-,N/A,,Clear,290,2012-11-18 12:53:00
6:53 AM,27.0,23.0,85,30.04,10.0,NNW,4.6,-,N/A,,Clear,340,2012-11-18 13:53:00
7:53 AM,34.0,27.0,75,30.03,10.0,NNW,3.5,-,N/A,,Clear,340,2012-11-18 14:53:00
8:53 AM,41.0,30.0,65,30.02,10.0,Calm,Calm,-,N/A,,Clear,0,2012-11-18 15:53:00
9:53 AM,48.0,30.9,52,29.99,10.0,Calm,Calm,-,N/A,,Clear,0,2012-11-18 16:53:00
10:53 AM,51.1,32.0,48,29.97,10.0,Calm,Calm,-,N/A,,Clear,0,2012-11-18 17:53:00
11:53 AM,55.9,32.0,40,29.94,10.0,Calm,Calm,-,N/A,,Clear,0,2012-11-18 18:53:00
12:53 PM,57.9,34.0,41,29.94,10.0,Calm,Calm,-,N/A,,Clear,0,2012-11-18 19:53:00
1:53 PM,57.0,35.1,44,29.93,10.0,SE,6.9,-,N/A,,Clear,130,2012-11-18 20:53:00
2:53 PM,57.0,36.0,45,29.94,10.0,SE,8.1,-,N/A,,Clear,130,2012-11-18 21:53:00
3:53 PM,52.0,36.0,54,29.97,10.0,SE,6.9,-,N/A,,Clear,140,2012-11-18 22:53:00
4:53 PM,42.1,33.1,70,30.00,10.0,SSE,6.9,-,N/A,,Clear,150,2012-11-18 23:53:00
5:53 PM,39.0,32.0,76,30.03,10.0,SSE,6.9,-,N/A,,Clear,160,2012-11-19 00:53:00
6:53 PM,37.0,32.0,82,30.05,10.0,SSE,4.6,-,N/A,,Clear,160,2012-11-19 01:53:00
7:53 PM,36.0,32.0,86,30.05,10.0,Calm,Calm,-,N/A,,Clear,0,2012-11-19 02:53:00
8:53 PM,36.0,30.9,82,30.05,10.0,WSW,9.2,-,N/A,,Clear,250,2012-11-19 03:53:00
9:53 PM,33.1,28.0,82,30.05,10.0,West,6.9,-,N/A,,Clear,260,2012-11-19 04:53:00
10:53 PM,39.0,30.0,70,30.04,10.0,WSW,6.9,-,N/A,,Clear,250,2012-11-19 05:53:00
11:53 PM,37.9,28.0,68,30.04,10.0,West,6.9,-,N/A,,Clear,280,2012-11-19 06:53:00